Location: Lecco
(45.8566°N, 9.3977°E)
Time: 04:55:27
(UTC+02:00)

Transit 4A - Pass Details

Date: 18 August 2020
Orbit: 863 x 982 km, 66.8° (Epoch: 23 September)

Event Time Altitude Azimuth Distance (km) Brightness Sun altitude
Rises 08:39:15 0° 202° (SSW) 3,483 10.7 21.9°
Reaches altitude 10° 08:41:42 10° 200° (SSW) 2,563 10.1 22.3°
Maximum altitude 08:47:37 69° 118° (ESE) 980 8.8 23.4°
Drops below altitude 10° 08:53:45 10° 37° (NE) 2,663 10.8 24.4°
Sets 08:56:21 0° 35° (NE) 3,628 11.4 24.9°
